This is the latest recevied weather packets stored in our database for station/object KC3ROS. If no packets are shown the sender has not sent any weather packets the latest 10 day(s).
| Time | Temp. | Humidity | Pressure | Rain* | Wind** | Luminosity | Snow |
|---|---|---|---|---|---|---|---|
| 1777596872 | 6.67° C | 80% | 1013.2 hPa | 0 mm | - | 0 W/m² | - |
| 1777596569 | 6.67° C | 80% | 1013.2 hPa | 0 mm | - | 0 W/m² | - |
| 1777596266 | 6.67° C | 80% | 1013.2 hPa | 0 mm | - | 0 W/m² | - |
| 1777595962 | 6.67° C | 81% | 1013.1 hPa | 0 mm | - | 0 W/m² | - |
| 1777595657 | 6.67° C | 80% | 1013.2 hPa | 0 mm | - | 0 W/m² | - |
| 1777595353 | 6.67° C | 79% | 1013 hPa | 0 mm | - | 0 W/m² | - |
| 1777595050 | 7.22° C | 79% | 1013.2 hPa | 0 mm | - | 1 W/m² | - |
| 1777594746 | 7.22° C | 79% | 1013 hPa | 0 mm | - | 1 W/m² | - |
| 1777594442 | 7.22° C | 79% | 1012.8 hPa | 0 mm | - | 3 W/m² | - |
| 1777594132 | 7.22° C | 78% | 1012.9 hPa | 0 mm | - | 5 W/m² | - |
| 1777593828 | 7.22° C | 78% | 1012.9 hPa | 0 mm | - | 7 W/m² | - |
| 1777593525 | 7.78° C | 77% | 1012.7 hPa | 0 mm | - | 9 W/m² | - |
| 1777593219 | 7.78° C | 77% | 1012.6 hPa | 0 mm | - | 11 W/m² | - |
| 1777592919 | 7.78° C | 76% | 1012.6 hPa | 0 mm | - | 13 W/m² | - |
| 1777592614 | 7.78° C | 75% | 1012.7 hPa | 0 mm | - | 15 W/m² | - |
| 1777592310 | 7.78° C | 76% | 1012.5 hPa | 0 mm | - | 18 W/m² | - |
| 1777592006 | 8.33° C | 75% | 1012.5 hPa | 0 mm | - | 20 W/m² | - |
| 1777591703 | 8.33° C | 76% | 1012.5 hPa | 0 mm | - | 22 W/m² | - |
| 1777591398 | 8.33° C | 75% | 1012.6 hPa | 0 mm | - | 25 W/m² | - |
| 1777591094 | 8.33° C | 74% | 1012.5 hPa | 0 mm | - | 33 W/m² | - |
| 1777590790 | 8.89° C | 75% | 1012.6 hPa | 0 mm | - | 42 W/m² | - |
| 1777590481 | 8.89° C | 75% | 1012.8 hPa | 0 mm | - | 49 W/m² | - |
| 1777590178 | 8.89° C | 77% | 1012.9 hPa | 0 mm | - | 56 W/m² | - |
| 1777589874 | 8.33° C | 76% | 1012.8 hPa | 0 mm | - | 83 W/m² | - |
| 1777589569 | 8.33° C | 76% | 1012.7 hPa | 0 mm | - | 57 W/m² | - |
* Rain latest hour (hover to see other rain measurements)
** Current wind speed in m/s (hover to see current wind gust speed)